contact:dominique.lefevre@mio.osupytheas.fr, maurice.libes@osupytheas.fr, didier.mallarino@osupytheas.fr
Project:EMSO http://www.emso-fr.org/EMSO-France
Depth: 2436.0 m
Title:EMSO Ligure Ouest : Data MII capteur MICROCAT
DateTime_Computer,Latitude,Longitude,Temperature,Conductivity,Pressure,DateTime_Instrument
DateTime_Computer,Latitude,Longitude,degC,S m-1,dbar,DateTime_Instrument
2019-10-17T00:00:32Z,42.805,6.029,13.2961,4.59986,2469.97,2019-10-17T02:00:58Z
2019-10-17T00:03:35Z,42.805,6.029,13.2958,4.59985,2469.97,2019-10-17T02:04:01Z
2019-10-17T00:06:39Z,42.805,6.029,13.2959,4.59993,2469.947,2019-10-17T02:07:04Z
2019-10-17T00:09:42Z,42.805,6.029,13.2961,4.59995,2469.984,2019-10-17T02:10:07Z
2019-10-17T00:12:45Z,42.805,6.029,13.2959,4.60035,2469.96,2019-10-17T02:13:10Z
2019-10-17T00:15:48Z,42.805,6.029,13.2953,4.60006,2469.937,2019-10-17T02:16:14Z
2019-10-17T00:18:51Z,42.805,6.029,13.2964,4.60000,2469.96,2019-10-17T02:19:17Z
2019-10-17T00:21:55Z,42.805,6.029,13.2963,4.59959,2469.937,2019-10-17T02:22:20Z
2019-10-17T00:24:58Z,42.805,6.029,13.2960,4.59976,2469.947,2019-10-17T02:25:23Z
2019-10-17T00:28:01Z,42.805,6.029,13.2957,4.59991,2469.923,2019-10-17T02:28:27Z
2019-10-17T00:31:04Z,42.805,6.029,13.2957,4.60003,2469.923,2019-10-17T02:31:30Z
2019-10-17T00:34:07Z,42.805,6.029,13.2957,4.59982,2469.923,2019-10-17T02:34:33Z
2019-10-17T00:37:11Z,42.805,6.029,13.2957,4.59988,2469.96,2019-10-17T02:37:36Z
2019-10-17T00:40:14Z,42.805,6.029,13.2961,4.59976,2469.923,2019-10-17T02:40:39Z
2019-10-17T00:43:17Z,42.805,6.029,13.2958,4.59997,2469.914,2019-10-17T02:43:43Z
2019-10-17T00:46:20Z,42.805,6.029,13.2967,4.59999,2469.937,2019-10-17T02:46:46Z
2019-10-17T00:49:23Z,42.805,6.029,13.2963,4.59987,2470.007,2019-10-17T02:49:49Z
2019-10-17T00:52:27Z,42.805,6.029,13.2958,4.59966,2469.914,2019-10-17T02:52:52Z
2019-10-17T00:55:30Z,42.805,6.029,13.2959,4.59966,2469.937,2019-10-17T02:55:56Z
2019-10-17T00:58:33Z,42.805,6.029,13.2958,4.59963,2469.923,2019-10-17T02:58:59Z
2019-10-17T01:01:37Z,42.805,6.029,13.2957,4.59959,2469.923,2019-10-17T03:02:02Z
2019-10-17T01:04:40Z,42.805,6.029,13.2961,4.59973,2469.9,2019-10-17T03:05:05Z
2019-10-17T01:07:43Z,42.805,6.029,13.2964,4.60046,2469.937,2019-10-17T03:08:09Z
2019-10-17T01:10:46Z,42.805,6.029,13.2955,4.59981,2469.9,2019-10-17T03:11:12Z
2019-10-17T01:13:50Z,42.805,6.029,13.2957,4.59974,2469.937,2019-10-17T03:14:15Z
2019-10-17T01:16:53Z,42.805,6.029,13.2958,4.59988,2469.914,2019-10-17T03:17:18Z
2019-10-17T01:19:56Z,42.805,6.029,13.2959,4.59987,2469.914,2019-10-17T03:20:22Z
2019-10-17T01:22:59Z,42.805,6.029,13.2961,4.59981,2469.89,2019-10-17T03:23:25Z
2019-10-17T01:26:03Z,42.805,6.029,13.2958,4.59986,2469.9,2019-10-17T03:26:28Z
2019-10-17T01:29:06Z,42.805,6.029,13.2954,4.60026,2469.914,2019-10-17T03:29:31Z
2019-10-17T01:32:09Z,42.805,6.029,13.2963,4.60017,2469.9,2019-10-17T03:32:35Z
2019-10-17T01:35:12Z,42.805,6.029,13.2971,4.60046,2469.9,2019-10-17T03:35:38Z
2019-10-17T01:38:15Z,42.805,6.029,13.2964,4.59991,2469.89,2019-10-17T03:38:41Z
2019-10-17T01:41:19Z,42.805,6.029,13.2968,4.60028,2469.914,2019-10-17T03:41:44Z
2019-10-17T01:44:22Z,42.805,6.029,13.3015,4.60017,2469.914,2019-10-17T03:44:47Z
2019-10-17T01:47:25Z,42.805,6.029,13.3001,4.60049,2469.937,2019-10-17T03:47:51Z
2019-10-17T01:50:28Z,42.805,6.029,13.2979,4.60036,2469.914,2019-10-17T03:50:54Z
2019-10-17T01:53:32Z,42.805,6.029,13.2971,4.60015,2469.9,2019-10-17T03:53:57Z
2019-10-17T01:56:35Z,42.805,6.029,13.2971,4.59996,2469.9,2019-10-17T03:57:00Z
2019-10-17T01:59:38Z,42.805,6.029,13.2966,4.59991,2469.9,2019-10-17T04:00:04Z
2019-10-17T02:02:41Z,42.805,6.029,13.2976,4.60027,2469.9,2019-10-17T04:03:07Z
2019-10-17T02:05:44Z,42.805,6.029,13.2974,4.60038,2469.914,2019-10-17T04:06:10Z
2019-10-17T02:08:48Z,42.805,6.029,13.2991,4.60046,2469.876,2019-10-17T04:09:13Z
2019-10-17T02:11:51Z,42.805,6.029,13.2986,4.60052,2469.914,2019-10-17T04:12:16Z
2019-10-17T02:14:54Z,42.805,6.029,13.2987,4.60049,2469.914,2019-10-17T04:15:20Z
2019-10-17T02:17:57Z,42.805,6.029,13.3003,4.60038,2469.923,2019-10-17T04:18:23Z
2019-10-17T02:21:01Z,42.805,6.029,13.3012,4.60031,2469.89,2019-10-17T04:21:26Z
2019-10-17T02:24:04Z,42.805,6.029,13.3004,4.60000,2469.876,2019-10-17T04:24:29Z
2019-10-17T02:27:07Z,42.805,6.029,13.3007,4.60001,2469.876,2019-10-17T04:27:32Z
2019-10-17T02:30:10Z,42.805,6.029,13.3009,4.59999,2469.876,2019-10-17T04:30:36Z
2019-10-17T02:33:13Z,42.805,6.029,13.2973,4.60032,2469.89,2019-10-17T04:33:39Z
2019-10-17T02:36:17Z,42.805,6.029,13.2980,4.60013,2469.914,2019-10-17T04:36:42Z
2019-10-17T02:39:20Z,42.805,6.029,13.2990,4.59997,2469.914,2019-10-17T04:39:45Z
2019-10-17T02:42:23Z,42.805,6.029,13.2990,4.59991,2469.914,2019-10-17T04:42:49Z
2019-10-17T02:45:26Z,42.805,6.029,13.3000,4.59993,2469.914,2019-10-17T04:45:52Z
2019-10-17T02:48:29Z,42.805,6.029,13.3027,4.59981,2469.89,2019-10-17T04:48:55Z
2019-10-17T02:51:33Z,42.805,6.029,13.2990,4.59976,2469.923,2019-10-17T04:51:58Z
2019-10-17T02:54:36Z,42.805,6.029,13.3004,4.59985,2469.914,2019-10-17T04:55:01Z
2019-10-17T02:57:39Z,42.805,6.029,13.3011,4.59992,2469.853,2019-10-17T04:58:05Z
2019-10-17T03:00:42Z,42.805,6.029,13.2999,4.59986,2469.876,2019-10-17T05:01:08Z
2019-10-17T03:03:45Z,42.805,6.029,13.2981,4.59985,2469.914,2019-10-17T05:04:11Z
2019-10-17T03:06:49Z,42.805,6.029,13.2986,4.60000,2469.89,2019-10-17T05:07:14Z
2019-10-17T03:09:52Z,42.805,6.029,13.3018,4.59982,2469.89,2019-10-17T05:10:17Z
2019-10-17T03:12:55Z,42.805,6.029,13.2998,4.59983,2469.89,2019-10-17T05:13:21Z
2019-10-17T03:15:58Z,42.805,6.029,13.3014,4.60013,2469.89,2019-10-17T05:16:24Z
2019-10-17T03:19:02Z,42.805,6.029,13.3000,4.59978,2469.853,2019-10-17T05:19:27Z
2019-10-17T03:22:05Z,42.805,6.029,13.2991,4.59986,2469.914,2019-10-17T05:22:30Z
2019-10-17T03:25:08Z,42.805,6.029,13.3024,4.59995,2469.947,2019-10-17T05:25:34Z
2019-10-17T03:28:11Z,42.805,6.029,13.3012,4.60004,2469.876,2019-10-17T05:28:37Z
2019-10-17T03:31:14Z,42.805,6.029,13.3010,4.59992,2469.9,2019-10-17T05:31:40Z
2019-10-17T03:34:18Z,42.805,6.029,13.3021,4.59993,2469.9,2019-10-17T05:34:43Z
2019-10-17T03:37:21Z,42.805,6.029,13.2993,4.59995,2469.9,2019-10-17T05:37:47Z
2019-10-17T03:40:24Z,42.805,6.029,13.2991,4.59991,2469.89,2019-10-17T05:40:50Z
2019-10-17T03:43:27Z,42.805,6.029,13.3014,4.60006,2469.867,2019-10-17T05:43:53Z
2019-10-17T03:46:31Z,42.805,6.029,13.3005,4.59996,2469.876,2019-10-17T05:46:56Z
2019-10-17T03:49:34Z,42.805,6.029,13.3011,4.59989,2469.89,2019-10-17T05:49:59Z
2019-10-17T03:52:37Z,42.805,6.029,13.3006,4.59991,2469.923,2019-10-17T05:53:03Z
2019-10-17T03:55:40Z,42.805,6.029,13.3019,4.59993,2469.9,2019-10-17T05:56:06Z
2019-10-17T03:58:43Z,42.805,6.029,13.3006,4.59993,2469.9,2019-10-17T05:59:09Z
2019-10-17T04:01:47Z,42.805,6.029,13.2998,4.59994,2469.9,2019-10-17T06:02:12Z
2019-10-17T04:04:50Z,42.805,6.029,13.3014,4.59991,2469.89,2019-10-17T06:05:15Z
2019-10-17T04:07:53Z,42.805,6.029,13.2990,4.59994,2469.9,2019-10-17T06:08:19Z
2019-10-17T04:10:56Z,42.805,6.029,13.3022,4.59990,2469.914,2019-10-17T06:11:22Z
2019-10-17T04:13:59Z,42.805,6.029,13.3020,4.59989,2469.876,2019-10-17T06:14:25Z
2019-10-17T04:17:03Z,42.805,6.029,13.3024,4.59989,2469.89,2019-10-17T06:17:28Z
2019-10-17T04:20:06Z,42.805,6.029,13.3005,4.59988,2469.914,2019-10-17T06:20:31Z
2019-10-17T04:23:09Z,42.805,6.029,13.3018,4.59984,2469.914,2019-10-17T06:23:35Z
2019-10-17T04:26:12Z,42.805,6.029,13.3014,4.59991,2469.914,2019-10-17T06:26:38Z
2019-10-17T04:29:16Z,42.805,6.029,13.3011,4.59994,2469.914,2019-10-17T06:29:41Z
2019-10-17T04:32:19Z,42.805,6.029,13.3011,4.59999,2469.914,2019-10-17T06:32:44Z
2019-10-17T04:35:22Z,42.805,6.029,13.2995,4.59992,2469.914,2019-10-17T06:35:48Z
2019-10-17T04:38:25Z,42.805,6.029,13.3008,4.59999,2469.937,2019-10-17T06:38:51Z
2019-10-17T04:41:28Z,42.805,6.029,13.2996,4.59991,2469.9,2019-10-17T06:41:54Z
2019-10-17T04:44:32Z,42.805,6.029,13.2992,4.59994,2469.937,2019-10-17T06:44:57Z
2019-10-17T04:47:35Z,42.805,6.029,13.2996,4.59994,2469.9,2019-10-17T06:48:00Z
2019-10-17T04:50:38Z,42.805,6.029,13.2991,4.59989,2469.914,2019-10-17T06:51:04Z
2019-10-17T04:53:41Z,42.805,6.029,13.2998,4.59985,2469.927,2019-10-17T06:54:07Z
2019-10-17T04:56:44Z,42.805,6.029,13.3024,4.59989,2469.914,2019-10-17T06:57:10Z
2019-10-17T04:59:48Z,42.805,6.029,13.2993,4.59996,2469.923,2019-10-17T07:00:13Z
2019-10-17T05:02:51Z,42.805,6.029,13.2993,4.59986,2469.937,2019-10-17T07:03:16Z
2019-10-17T05:05:54Z,42.805,6.029,13.2995,4.59986,2469.937,2019-10-17T07:06:20Z
2019-10-17T05:08:57Z,42.805,6.029,13.2996,4.59994,2469.96,2019-10-17T07:09:23Z
2019-10-17T05:12:01Z,42.805,6.029,13.3003,4.59992,2469.947,2019-10-17T07:12:26Z
2019-10-17T05:15:04Z,42.805,6.029,13.2997,4.59994,2469.923,2019-10-17T07:15:29Z
2019-10-17T05:18:07Z,42.805,6.029,13.2998,4.59997,2469.923,2019-10-17T07:18:33Z
2019-10-17T05:21:10Z,42.805,6.029,13.3004,4.59999,2469.937,2019-10-17T07:21:36Z
2019-10-17T05:24:13Z,42.805,6.029,13.3000,4.59985,2469.947,2019-10-17T07:24:39Z
2019-10-17T05:27:17Z,42.805,6.029,13.2995,4.59996,2469.923,2019-10-17T07:27:42Z
2019-10-17T05:30:20Z,42.805,6.029,13.2999,4.59989,2469.984,2019-10-17T07:30:45Z
2019-10-17T05:33:23Z,42.805,6.029,13.2994,4.59994,2469.993,2019-10-17T07:33:49Z
2019-10-17T05:36:26Z,42.805,6.029,13.2996,4.59989,2469.947,2019-10-17T07:36:52Z
2019-10-17T05:39:30Z,42.805,6.029,13.2994,4.59986,2469.984,2019-10-17T07:39:55Z
2019-10-17T05:42:33Z,42.805,6.029,13.2997,4.60010,2469.947,2019-10-17T07:42:58Z
2019-10-17T05:45:36Z,42.805,6.029,13.2995,4.59996,2469.96,2019-10-17T07:46:01Z
2019-10-17T05:48:39Z,42.805,6.029,13.3023,4.60003,2469.947,2019-10-17T07:49:05Z
2019-10-17T05:51:42Z,42.805,6.029,13.3005,4.60009,2469.923,2019-10-17T07:52:08Z
2019-10-17T05:54:46Z,42.805,6.029,13.3001,4.59991,2469.96,2019-10-17T07:55:11Z
2019-10-17T05:57:49Z,42.805,6.029,13.3000,4.59995,2469.96,2019-10-17T07:58:14Z
2019-10-17T06:00:52Z,42.805,6.029,13.3002,4.60014,2469.984,2019-10-17T08:01:18Z
2019-10-17T06:03:55Z,42.805,6.029,13.2995,4.59981,2469.97,2019-10-17T08:04:21Z
2019-10-17T06:06:59Z,42.805,6.029,13.2985,4.59990,2469.97,2019-10-17T08:07:24Z
2019-10-17T06:10:02Z,42.805,6.029,13.2984,4.59990,2469.984,2019-10-17T08:10:27Z
2019-10-17T06:13:05Z,42.805,6.029,13.2991,4.59988,2469.984,2019-10-17T08:13:30Z
2019-10-17T06:16:08Z,42.805,6.029,13.2989,4.59991,2469.97,2019-10-17T08:16:34Z
2019-10-17T06:19:11Z,42.805,6.029,13.3011,4.59978,2469.947,2019-10-17T08:19:37Z
2019-10-17T06:22:15Z,42.805,6.029,13.2997,4.59987,2470.007,2019-10-17T08:22:40Z
2019-10-17T06:25:18Z,42.805,6.029,13.2986,4.60011,2470.017,2019-10-17T08:25:44Z
2019-10-17T06:28:22Z,42.805,6.029,13.3043,4.59996,2470.03,2019-10-17T08:28:47Z
2019-10-17T06:31:25Z,42.805,6.029,13.2999,4.59998,2470.017,2019-10-17T08:31:51Z
2019-10-17T06:34:28Z,42.805,6.029,13.3001,4.59988,2470.03,2019-10-17T08:34:54Z
2019-10-17T06:37:32Z,42.805,6.029,13.3040,4.59985,2470.053,2019-10-17T08:37:57Z
2019-10-17T06:40:35Z,42.805,6.029,13.3000,4.59990,2470.03,2019-10-17T08:41:00Z
2019-10-17T06:43:38Z,42.805,6.029,13.2986,4.59998,2469.993,2019-10-17T08:44:04Z
2019-10-17T06:46:41Z,42.805,6.029,13.2988,4.59977,2470.04,2019-10-17T08:47:07Z
2019-10-17T06:49:44Z,42.805,6.029,13.2993,4.59981,2470.04,2019-10-17T08:50:10Z
2019-10-17T06:52:48Z,42.805,6.029,13.2992,4.59978,2470.03,2019-10-17T08:53:13Z
2019-10-17T06:55:51Z,42.805,6.029,13.2986,4.59991,2470.03,2019-10-17T08:56:16Z
2019-10-17T06:58:54Z,42.805,6.029,13.2990,4.59981,2470.053,2019-10-17T08:59:20Z
2019-10-17T07:01:57Z,42.805,6.029,13.2991,4.59990,2470.053,2019-10-17T09:02:23Z
2019-10-17T07:05:01Z,42.805,6.029,13.2992,4.59984,2470.063,2019-10-17T09:05:26Z
2019-10-17T07:08:04Z,42.805,6.029,13.2998,4.59991,2470.017,2019-10-17T09:08:29Z
2019-10-17T07:11:07Z,42.805,6.029,13.2961,4.60014,2470.017,2019-10-17T09:11:33Z
2019-10-17T07:14:10Z,42.805,6.029,13.2969,4.59986,2470.04,2019-10-17T09:14:36Z
2019-10-17T07:17:14Z,42.805,6.029,13.2959,4.59986,2470.053,2019-10-17T09:17:39Z
2019-10-17T07:20:17Z,42.805,6.029,13.2954,4.59972,2470.063,2019-10-17T09:20:42Z
2019-10-17T07:23:20Z,42.805,6.029,13.2959,4.59978,2470.077,2019-10-17T09:23:45Z
2019-10-17T07:26:23Z,42.805,6.029,13.2957,4.59984,2470.077,2019-10-17T09:26:49Z
2019-10-17T07:29:26Z,42.805,6.029,13.2957,4.59970,2470.053,2019-10-17T09:29:52Z
2019-10-17T07:32:30Z,42.805,6.029,13.2961,4.59976,2470.063,2019-10-17T09:32:55Z
2019-10-17T07:35:33Z,42.805,6.029,13.2955,4.59979,2470.063,2019-10-17T09:35:58Z
2019-10-17T07:38:36Z,42.805,6.029,13.2967,4.59976,2470.077,2019-10-17T09:39:01Z
2019-10-17T07:41:39Z,42.805,6.029,13.2958,4.59978,2470.063,2019-10-17T09:42:05Z
2019-10-17T07:44:42Z,42.805,6.029,13.2954,4.59980,2470.1,2019-10-17T09:45:08Z
2019-10-17T07:47:46Z,42.805,6.029,13.2961,4.59985,2470.077,2019-10-17T09:48:11Z
2019-10-17T07:50:49Z,42.805,6.029,13.2956,4.59975,2470.063,2019-10-17T09:51:14Z
2019-10-17T07:53:52Z,42.805,6.029,13.2965,4.59982,2470.1,2019-10-17T09:54:17Z
2019-10-17T07:56:55Z,42.805,6.029,13.2958,4.59971,2470.063,2019-10-17T09:57:21Z
2019-10-17T07:59:59Z,42.805,6.029,13.2952,4.59975,2470.063,2019-10-17T10:00:24Z
2019-10-17T08:03:02Z,42.805,6.029,13.2957,4.59979,2470.077,2019-10-17T10:03:28Z
2019-10-17T08:06:05Z,42.805,6.029,13.2957,4.59979,2470.1,2019-10-17T10:06:31Z
2019-10-17T08:09:08Z,42.805,6.029,13.2955,4.59966,2470.11,2019-10-17T10:09:34Z
2019-10-17T08:12:12Z,42.805,6.029,13.2957,4.59966,2470.04,2019-10-17T10:12:37Z
2019-10-17T08:15:15Z,42.805,6.029,13.2963,4.59971,2470.087,2019-10-17T10:15:41Z
2019-10-17T08:18:18Z,42.805,6.029,13.2956,4.59984,2470.063,2019-10-17T10:18:44Z
2019-10-17T08:21:21Z,42.805,6.029,13.2956,4.59975,2470.11,2019-10-17T10:21:47Z
2019-10-17T08:24:25Z,42.805,6.029,13.2959,4.59969,2470.124,2019-10-17T10:24:50Z
2019-10-17T08:27:28Z,42.805,6.029,13.2958,4.59973,2470.087,2019-10-17T10:27:54Z
2019-10-17T08:30:31Z,42.805,6.029,13.2955,4.59972,2470.124,2019-10-17T10:30:57Z
2019-10-17T08:33:35Z,42.805,6.029,13.2959,4.59964,2470.1,2019-10-17T10:34:00Z
2019-10-17T08:36:38Z,42.805,6.029,13.2954,4.59964,2470.087,2019-10-17T10:37:03Z
2019-10-17T08:39:41Z,42.805,6.029,13.2957,4.59964,2470.077,2019-10-17T10:40:06Z
2019-10-17T08:42:44Z,42.805,6.029,13.2955,4.59964,2470.063,2019-10-17T10:43:10Z
2019-10-17T08:45:47Z,42.805,6.029,13.2957,4.59966,2470.11,2019-10-17T10:46:13Z
2019-10-17T08:48:51Z,42.805,6.029,13.2953,4.59966,2470.11,2019-10-17T10:49:16Z
2019-10-17T08:51:54Z,42.805,6.029,13.2960,4.59970,2470.11,2019-10-17T10:52:19Z
2019-10-17T08:54:57Z,42.805,6.029,13.2957,4.59961,2470.124,2019-10-17T10:55:23Z
2019-10-17T08:58:00Z,42.805,6.029,13.2955,4.59961,2470.11,2019-10-17T10:58:26Z
2019-10-17T09:01:04Z,42.805,6.029,13.2959,4.59966,2470.11,2019-10-17T11:01:29Z
2019-10-17T09:04:07Z,42.805,6.029,13.2952,4.59964,2470.063,2019-10-17T11:04:32Z
2019-10-17T09:07:10Z,42.805,6.029,13.2956,4.59963,2470.087,2019-10-17T11:07:36Z
2019-10-17T09:10:13Z,42.805,6.029,13.2957,4.59966,2470.1,2019-10-17T11:10:39Z
2019-10-17T09:13:17Z,42.805,6.029,13.2958,4.59964,2470.087,2019-10-17T11:13:42Z
2019-10-17T09:16:20Z,42.805,6.029,13.2955,4.59964,2470.073,2019-10-17T11:16:45Z
2019-10-17T09:19:23Z,42.805,6.029,13.2953,4.59958,2470.087,2019-10-17T11:19:49Z
2019-10-17T09:22:26Z,42.805,6.029,13.2952,4.59960,2470.077,2019-10-17T11:22:52Z
2019-10-17T09:25:30Z,42.805,6.029,13.2955,4.59964,2470.1,2019-10-17T11:25:55Z
2019-10-17T09:28:33Z,42.805,6.029,13.2955,4.59959,2470.124,2019-10-17T11:28:58Z
2019-10-17T09:31:36Z,42.805,6.029,13.2958,4.59961,2470.11,2019-10-17T11:32:01Z
2019-10-17T09:34:39Z,42.805,6.029,13.2957,4.59961,2470.124,2019-10-17T11:35:05Z
2019-10-17T09:37:42Z,42.805,6.029,13.2957,4.59958,2470.1,2019-10-17T11:38:08Z
2019-10-17T09:40:46Z,42.805,6.029,13.2957,4.59958,2470.087,2019-10-17T11:41:11Z
2019-10-17T09:43:49Z,42.805,6.029,13.2953,4.59962,2470.11,2019-10-17T11:44:14Z
2019-10-17T09:46:52Z,42.805,6.029,13.2952,4.59960,2470.063,2019-10-17T11:47:17Z
2019-10-17T09:49:55Z,42.805,6.029,13.2953,4.59958,2470.077,2019-10-17T11:50:21Z
2019-10-17T09:52:58Z,42.805,6.029,13.2959,4.59958,2470.087,2019-10-17T11:53:24Z
2019-10-17T09:56:02Z,42.805,6.029,13.2953,4.59961,2470.11,2019-10-17T11:56:27Z
2019-10-17T09:59:05Z,42.805,6.029,13.2957,4.59961,2470.124,2019-10-17T11:59:30Z
2019-10-17T10:02:08Z,42.805,6.029,13.2956,4.59958,2470.087,2019-10-17T12:02:34Z
2019-10-17T10:05:11Z,42.805,6.029,13.2956,4.59958,2470.124,2019-10-17T12:05:37Z
2019-10-17T10:08:14Z,42.805,6.029,13.2957,4.59959,2470.1,2019-10-17T12:08:40Z
2019-10-17T10:11:18Z,42.805,6.029,13.2950,4.59961,2470.087,2019-10-17T12:11:43Z
2019-10-17T10:14:21Z,42.805,6.029,13.2957,4.59960,2470.1,2019-10-17T12:14:46Z
2019-10-17T10:17:24Z,42.805,6.029,13.2954,4.59960,2470.063,2019-10-17T12:17:50Z
2019-10-17T10:20:27Z,42.805,6.029,13.2957,4.59961,2470.1,2019-10-17T12:20:53Z
2019-10-17T10:23:31Z,42.805,6.029,13.2956,4.59961,2470.077,2019-10-17T12:23:56Z
2019-10-17T10:26:34Z,42.805,6.029,13.2955,4.59964,2470.087,2019-10-17T12:27:00Z
2019-10-17T10:29:37Z,42.805,6.029,13.2955,4.59958,2470.04,2019-10-17T12:30:03Z
2019-10-17T10:32:40Z,42.805,6.029,13.2957,4.59957,2470.077,2019-10-17T12:33:06Z
2019-10-17T10:35:44Z,42.805,6.029,13.2953,4.59963,2470.063,2019-10-17T12:36:09Z
2019-10-17T10:38:47Z,42.805,6.029,13.2958,4.59959,2470.1,2019-10-17T12:39:13Z
2019-10-17T10:41:50Z,42.805,6.029,13.2958,4.59961,2470.063,2019-10-17T12:42:16Z
2019-10-17T10:44:53Z,42.805,6.029,13.2959,4.59961,2470.063,2019-10-17T12:45:19Z
2019-10-17T10:47:57Z,42.805,6.029,13.2959,4.59958,2470.063,2019-10-17T12:48:22Z
2019-10-17T10:51:00Z,42.805,6.029,13.2952,4.59958,2470.077,2019-10-17T12:51:25Z
2019-10-17T10:54:03Z,42.805,6.029,13.2957,4.59958,2470.017,2019-10-17T12:54:29Z
2019-10-17T10:57:06Z,42.805,6.029,13.2956,4.59958,2470.063,2019-10-17T12:57:32Z
2019-10-17T11:00:10Z,42.805,6.029,13.2956,4.59960,2470.077,2019-10-17T13:00:35Z
2019-10-17T11:03:13Z,42.805,6.029,13.2956,4.59958,2470.04,2019-10-17T13:03:38Z
2019-10-17T11:06:16Z,42.805,6.029,13.2958,4.59961,2470.063,2019-10-17T13:06:42Z
2019-10-17T11:09:19Z,42.805,6.029,13.2958,4.59964,2470.053,2019-10-17T13:09:45Z
2019-10-17T11:12:22Z,42.805,6.029,13.2960,4.59961,2470.053,2019-10-17T13:12:48Z
2019-10-17T11:15:26Z,42.805,6.029,13.2957,4.59958,2470.063,2019-10-17T13:15:51Z
2019-10-17T11:18:29Z,42.805,6.029,13.2958,4.59964,2470.04,2019-10-17T13:18:54Z
2019-10-17T11:21:32Z,42.805,6.029,13.2955,4.59960,2470.017,2019-10-17T13:21:58Z
2019-10-17T11:24:35Z,42.805,6.029,13.2957,4.59960,2470.017,2019-10-17T13:25:01Z
2019-10-17T11:27:38Z,42.805,6.029,13.2958,4.59964,2470.053,2019-10-17T13:28:04Z
2019-10-17T11:30:42Z,42.805,6.029,13.2954,4.59960,2470.017,2019-10-17T13:31:07Z
2019-10-17T11:33:45Z,42.805,6.029,13.2953,4.59960,2470.017,2019-10-17T13:34:10Z
2019-10-17T11:36:48Z,42.805,6.029,13.2955,4.59959,2470.03,2019-10-17T13:37:14Z
2019-10-17T11:39:51Z,42.805,6.029,13.2955,4.59958,2470.017,2019-10-17T13:40:17Z
2019-10-17T11:42:55Z,42.805,6.029,13.2961,4.59959,2470.017,2019-10-17T13:43:20Z
2019-10-17T11:45:58Z,42.805,6.029,13.2958,4.59963,2470.053,2019-10-17T13:46:23Z
2019-10-17T11:49:01Z,42.805,6.029,13.2952,4.59959,2470.04,2019-10-17T13:49:27Z
2019-10-17T11:52:04Z,42.805,6.029,13.2955,4.59961,2470.03,2019-10-17T13:52:30Z
2019-10-17T11:55:07Z,42.805,6.029,13.2958,4.59961,2469.993,2019-10-17T13:55:33Z
2019-10-17T11:58:11Z,42.805,6.029,13.2958,4.59961,2469.993,2019-10-17T13:58:36Z
2019-10-17T12:01:14Z,42.805,6.029,13.2954,4.59958,2469.993,2019-10-17T14:01:39Z
2019-10-17T12:04:17Z,42.805,6.029,13.2955,4.59964,2470.04,2019-10-17T14:04:43Z
2019-10-17T12:07:20Z,42.805,6.029,13.2958,4.59958,2470.017,2019-10-17T14:07:46Z
2019-10-17T12:10:23Z,42.805,6.029,13.2958,4.59960,2470.053,2019-10-17T14:10:49Z
2019-10-17T12:13:27Z,42.805,6.029,13.2958,4.59961,2470.017,2019-10-17T14:13:52Z
2019-10-17T12:16:30Z,42.805,6.029,13.2957,4.59961,2469.993,2019-10-17T14:16:55Z
2019-10-17T12:19:33Z,42.805,6.029,13.2956,4.59963,2470.007,2019-10-17T14:19:59Z
2019-10-17T12:22:36Z,42.805,6.029,13.2954,4.59961,2470.017,2019-10-17T14:23:02Z
2019-10-17T12:25:39Z,42.805,6.029,13.2957,4.59961,2470.03,2019-10-17T14:26:05Z
2019-10-17T12:28:43Z,42.805,6.029,13.2955,4.59961,2469.993,2019-10-17T14:29:08Z
2019-10-17T12:31:46Z,42.805,6.029,13.2958,4.59962,2470.007,2019-10-17T14:32:11Z
2019-10-17T12:34:49Z,42.805,6.029,13.2957,4.59968,2470.017,2019-10-17T14:35:15Z
2019-10-17T12:37:52Z,42.805,6.029,13.2957,4.59964,2470.03,2019-10-17T14:38:18Z
2019-10-17T12:40:55Z,42.805,6.029,13.2957,4.59962,2469.979,2019-10-17T14:41:21Z
2019-10-17T12:43:59Z,42.805,6.029,13.2955,4.59964,2469.993,2019-10-17T14:44:24Z
2019-10-17T12:47:02Z,42.805,6.029,13.2955,4.59958,2469.97,2019-10-17T14:47:27Z
2019-10-17T12:50:05Z,42.805,6.029,13.2958,4.59960,2469.993,2019-10-17T14:50:31Z
2019-10-17T12:53:08Z,42.805,6.029,13.2958,4.59966,2470.007,2019-10-17T14:53:34Z
2019-10-17T12:56:12Z,42.805,6.029,13.2957,4.59961,2470.007,2019-10-17T14:56:37Z
2019-10-17T12:59:15Z,42.805,6.029,13.2953,4.59960,2469.96,2019-10-17T14:59:40Z
2019-10-17T13:02:18Z,42.805,6.029,13.2957,4.59961,2470.007,2019-10-17T15:02:43Z
2019-10-17T13:05:21Z,42.805,6.029,13.2954,4.59961,2469.97,2019-10-17T15:05:47Z
2019-10-17T13:08:24Z,42.805,6.029,13.2957,4.59961,2469.97,2019-10-17T15:08:50Z
2019-10-17T13:11:28Z,42.805,6.029,13.2953,4.59965,2470.03,2019-10-17T15:11:53Z
2019-10-17T13:14:31Z,42.805,6.029,13.2957,4.59964,2469.96,2019-10-17T15:14:56Z
2019-10-17T13:17:34Z,42.805,6.029,13.2957,4.59961,2469.984,2019-10-17T15:18:00Z
2019-10-17T13:20:37Z,42.805,6.029,13.2957,4.59961,2469.984,2019-10-17T15:21:03Z
2019-10-17T13:23:41Z,42.805,6.029,13.2959,4.59965,2469.984,2019-10-17T15:24:06Z
2019-10-17T13:26:44Z,42.805,6.029,13.2954,4.59969,2469.933,2019-10-17T15:27:09Z
2019-10-17T13:29:47Z,42.805,6.029,13.2957,4.59964,2469.97,2019-10-17T15:30:12Z
2019-10-17T13:32:50Z,42.805,6.029,13.2958,4.59964,2469.984,2019-10-17T15:33:16Z
2019-10-17T13:35:53Z,42.805,6.029,13.2958,4.59966,2469.993,2019-10-17T15:36:19Z
2019-10-17T13:38:57Z,42.805,6.029,13.2955,4.59966,2469.947,2019-10-17T15:39:22Z
2019-10-17T13:42:00Z,42.805,6.029,13.2957,4.59964,2469.984,2019-10-17T15:42:25Z
2019-10-17T13:45:03Z,42.805,6.029,13.2957,4.59965,2469.97,2019-10-17T15:45:29Z
2019-10-17T13:48:06Z,42.805,6.029,13.2961,4.59968,2469.97,2019-10-17T15:48:32Z
2019-10-17T13:51:09Z,42.805,6.029,13.2957,4.59962,2469.993,2019-10-17T15:51:35Z
2019-10-17T13:54:13Z,42.805,6.029,13.2957,4.59956,2469.96,2019-10-17T15:54:38Z
2019-10-17T13:57:16Z,42.805,6.029,13.2956,4.59967,2469.96,2019-10-17T15:57:41Z
2019-10-17T14:00:19Z,42.805,6.029,13.2955,4.59964,2469.97,2019-10-17T16:00:45Z
2019-10-17T14:03:22Z,42.805,6.029,13.2958,4.59960,2469.96,2019-10-17T16:03:48Z
2019-10-17T14:06:25Z,42.805,6.029,13.2960,4.59958,2469.984,2019-10-17T16:06:51Z
2019-10-17T14:09:29Z,42.805,6.029,13.2956,4.59958,2469.97,2019-10-17T16:09:54Z
2019-10-17T14:12:32Z,42.805,6.029,13.2957,4.59960,2469.97,2019-10-17T16:12:57Z
2019-10-17T14:15:35Z,42.805,6.029,13.2958,4.59974,2469.947,2019-10-17T16:16:01Z
2019-10-17T14:18:38Z,42.805,6.029,13.2958,4.59958,2469.96,2019-10-17T16:19:04Z
2019-10-17T14:21:41Z,42.805,6.029,13.2958,4.59961,2469.97,2019-10-17T16:22:07Z
2019-10-17T14:24:45Z,42.805,6.029,13.2958,4.59957,2469.97,2019-10-17T16:25:10Z
2019-10-17T14:27:48Z,42.805,6.029,13.2960,4.59964,2469.947,2019-10-17T16:28:13Z
2019-10-17T14:30:51Z,42.805,6.029,13.2959,4.59974,2469.947,2019-10-17T16:31:16Z
2019-10-17T14:33:54Z,42.805,6.029,13.2955,4.59957,2469.96,2019-10-17T16:34:20Z
2019-10-17T14:36:57Z,42.805,6.029,13.2956,4.59964,2469.947,2019-10-17T16:37:23Z
2019-10-17T14:40:01Z,42.805,6.029,13.2956,4.59958,2469.96,2019-10-17T16:40:26Z
2019-10-17T14:43:04Z,42.805,6.029,13.2959,4.59957,2469.947,2019-10-17T16:43:29Z
2019-10-17T14:46:07Z,42.805,6.029,13.2960,4.59958,2469.96,2019-10-17T16:46:33Z
2019-10-17T14:49:10Z,42.805,6.029,13.2964,4.59961,2469.97,2019-10-17T16:49:36Z
2019-10-17T14:52:13Z,42.805,6.029,13.2960,4.59961,2469.9,2019-10-17T16:52:39Z
2019-10-17T14:55:17Z,42.805,6.029,13.2955,4.59966,2469.923,2019-10-17T16:55:42Z
2019-10-17T14:58:20Z,42.805,6.029,13.2961,4.59958,2469.947,2019-10-17T16:58:45Z
2019-10-17T15:01:23Z,42.805,6.029,13.2957,4.59964,2469.96,2019-10-17T17:01:48Z